EW7556 Weather Reports


Display with metric or nautical units.
time (UTC)temp
F
wind
direction
speed
MPH
gust
MPH
rain 1hr
in
rain 24hr
in
rain mn
in
humidity
%
barometer
mb
20260902011551 63 221 0.0 1.0 0.00 0.00 0.00 78 1008.9
20260902010043 63 221 0.0 0.0 0.00 0.00 0.00 78 1008.8
20260902004532 63 221 0.0 1.0 0.00 0.00 0.00 78 1008.9
20260902003031 63 221 0.0 1.0 0.00 0.00 0.00 78 1008.9
20260902001534 62 221 0.0 0.0 0.00 0.00 0.00 78 1008.9
20260902000020 62 221 0.0 0.0 0.00 0.00 0.00 78 1009.0
20260901234532 62 221 0.0 0.0 0.00 0.00 0.00 78 1009.0
20260901233036 62 219 0.0 3.0 0.00 0.00 0.00 77 1009.0
20260901231547 63 238 0.0 3.0 0.00 0.00 0.00 77 1009.0
20260901230046 63 245 1.0 3.0 0.00 0.00 0.00 76 1009.1
20260901224528 63 212 2.0 5.0 0.00 0.00 0.00 76 1009.1
20260901223029 63 251 1.0 4.0 0.00 0.00 0.00 77 1009.1
20260901221559 63 233 1.0 6.0 0.00 0.00 0.00 76 1009.3
20260901220018 63 216 2.0 4.0 0.00 0.00 0.00 77 1009.3
20260901214519 63 254 0.0 4.0 0.00 0.00 0.00 78 1009.4
20260901213024 63 234 1.0 4.0 0.00 0.00 0.00 77 1009.5
20260901211527 63 203 0.0 6.0 0.00 0.00 0.00 77 1009.7
20260901210008 64 238 2.0 6.0 0.00 0.00 0.00 75 1009.7
20260901204516 65 193 5.0 10.0 0.00 0.00 0.00 73 1009.8
20260901203015 66 231 3.0 12.0 0.00 0.00 0.00 71 1009.8
20260901201519 68 226 2.0 6.0 0.00 0.00 0.00 68 1009.7
20260901200011 67 325 3.0 8.0 0.00 0.00 0.00 71 1009.6
20260901194507 69 216 1.0 5.0 0.00 0.00 0.00 68 1009.6
20260901193011 68 204 1.0 5.0 0.00 0.00 0.00 70 1009.7
20260901191521 67 231 2.0 5.0 0.00 0.00 0.00 69 1009.8
20260901190025 66 211 2.0 5.0 0.00 0.00 0.00 73 1009.8
20260901184525 65 184 3.0 6.0 0.00 0.00 0.00 75 1009.7
20260901183042 64 237 2.0 6.0 0.00 0.00 0.00 79 1009.7
20260901181531 63 219 3.0 5.0 0.00 0.00 0.00 78 1009.8
20260901180018 62 186 2.0 7.0 0.00 0.00 0.00 83 1009.8
20260901174519 59 211 2.0 9.0 0.00 0.00 0.00 87 1009.8
20260901173023 58 248 5.0 9.0 0.00 0.00 0.00 87 1009.8
20260901171527 58 176 2.0 8.0 0.00 0.00 0.00 89 1009.8
20260901170012 57 203 1.0 4.0 0.00 0.00 0.00 89 1009.8
20260901164516 57 253 2.0 5.0 0.00 0.00 0.00 89 1009.6
20260901163019 57 207 1.0 3.0 0.00 0.00 0.00 90 1009.6
20260901161529 56 252 1.0 5.0 0.00 0.00 0.00 90 1009.7
20260901160008 56 240 1.0 5.0 0.00 0.00 0.00 90 1009.7
20260901154511 55 252 0.0 2.0 0.00 0.00 0.00 90 1009.8
20260901153020 54 233 0.0 0.0 0.00 0.00 0.00 91 1009.8
20260901151533 53 216 0.0 0.0 0.00 0.00 0.00 91 1009.7
20260901150002 51 216 0.0 0.0 0.00 0.00 0.00 91 1009.5
20260901144506 50 216 0.0 0.0 0.00 0.00 0.00 91 1009.4
20260901143010 50 216 0.0 0.0 0.00 0.00 0.00 91 1009.2
20260901141513 49 216 0.0 0.0 0.00 0.00 0.00 91 1009.2
20260901140005 48 216 0.0 0.0 0.00 0.00 0.00 91 1009.1
20260901134517 47 216 0.0 0.0 0.00 0.00 0.00 91 1008.9
20260901133020 47 216 0.0 0.0 0.00 0.00 0.00 91 1008.9
20260901131512 46 216 0.0 0.0 0.00 0.00 0.00 91 1008.8
20260901130112 46 216 0.0 0.0 0.00 0.00 0.00 91 1008.8
20260901124601 46 216 0.0 0.0 0.00 0.00 0.00 91 1008.9
20260901123101 46 216 0.0 0.0 0.00 0.00 0.00 91 1008.9
20260901121608 46 216 0.0 0.0 0.00 0.00 0.00 91 1009.0
20260901120107 46 216 0.0 0.0 0.00 0.00 0.00 91 1009.0
20260901114508 47 216 0.0 0.0 0.00 0.00 0.00 91 1008.9
20260901113009 46 216 0.0 0.0 0.00 0.00 0.00 91 1008.8
20260901111523 47 216 0.0 0.0 0.00 0.00 0.00 91 1008.9
20260901110011 46 216 0.0 0.0 0.00 0.00 0.00 91 1008.9
20260901104511 47 216 0.0 0.0 0.00 0.00 0.00 91 1009.1
20260901103015 47 216 0.0 0.0 0.00 0.00 0.00 91 1009.0
20260901101546 47 216 0.0 0.0 0.00 0.00 0.00 91 1009.0
20260901100003 47 216 0.0 0.0 0.00 0.00 0.00 91 1009.1
20260901094504 47 216 0.0 0.0 0.00 0.00 0.00 91 1009.0
20260901093006 48 216 0.0 0.0 0.00 0.00 0.00 91 1008.9
20260901091511 48 216 0.0 0.0 0.00 0.00 0.00 90 1008.9
20260901090117 48 216 0.0 0.0 0.00 0.00 0.00 91 1009.0
20260901084602 48 216 0.0 0.0 0.00 0.00 0.00 90 1008.8
20260901083002 49 216 0.0 0.0 0.00 0.00 0.00 90 1008.8
20260901081509 49 216 0.0 1.0 0.00 0.00 0.00 90 1008.9
20260901080214 49 216 0.0 0.0 0.00 0.00 0.00 90 1008.7
20260901074602 49 216 0.0 0.0 0.00 0.00 0.00 90 1008.7
20260901073007 50 216 0.0 0.0 0.00 0.00 0.00 90 1008.6
20260901071511 49 216 0.0 0.0 0.00 0.00 0.00 90 1008.7
20260901070136 50 216 0.0 0.0 0.00 0.00 0.00 90 1008.8
20260901064610 50 216 0.0 0.0 0.00 0.00 0.00 90 1008.9
20260901063107 51 216 0.0 0.0 0.00 0.00 0.00 90 1008.9
20260901061603 51 216 0.0 0.0 0.00 0.00 0.00 90 1008.9
20260901060054 51 216 0.0 0.0 0.00 0.00 0.00 89 1009.2
20260901054551 51 216 0.0 0.0 0.00 0.00 0.00 89 1009.2
20260901053056 52 216 0.0 0.0 0.00 0.00 0.00 89 1009.2
20260901051554 53 216 0.0 0.0 0.00 0.00 0.00 88 1009.3
20260901050058 54 216 0.0 0.0 0.00 0.00 0.00 87 1009.3
20260901044611 55 216 0.0 0.0 0.00 0.00 0.00 86 1009.3
20260901043054 56 216 0.0 2.0 0.00 0.00 0.00 86 1009.2
20260901041557 56 216 0.0 1.0 0.00 0.00 0.00 85 1009.3
20260901040104 57 211 0.0 3.0 0.00 0.00 0.00 83 1009.3
20260901034552 57 214 0.0 4.0 0.00 0.00 0.00 83 1009.2
20260901033056 57 192 0.0 2.0 0.00 0.00 0.00 83 1009.1
20260901031502 58 210 1.0 4.0 0.00 0.00 0.00 82 1009.2
20260901030110 58 224 2.0 6.0 0.00 0.00 0.00 82 1009.1
20260901024601 59 215 3.0 7.0 0.00 0.00 0.00 79 1009.2
20260901023059 62 239 1.0 6.0 0.00 0.00 0.00 72 1009.2
20260901021613 69 250 0.0 2.0 0.00 0.00 0.00 60 1009.2
20260901020106 70 184 0.0 3.0 0.00 0.00 0.00 57 1009.2
20260901014552 70 209 0.0 2.0 0.00 0.00 0.00 58 1009.2
20260901013121 70 212 0.0 2.0 0.00 0.00 0.00 57 1009.2